Location: Schommer Observatory
(40.5200°N, 74.4500°W)
Time: 11:08:20
(UTC-05:00)

Vanguard 3 - All Passes

Search period start: 23 February 2018 00:00
Search period end: 05 March 2018 00:00
Orbit: 508 x 3264 km, 33.3° (Epoch: 22 February)

Date Brightness Start Highest point End Pass type
(mag) Time Alt. Az. Time Alt. Az. Time Alt. Az.
23 Feb - 13:41:52 10° SW 13:47:12 23° SSE 13:50:59 10° ESE daylight
23 Feb - 15:54:10 10° WSW 15:58:28 31° S 16:01:51 10° ESE daylight
23 Feb - 18:06:29 10° WSW 18:09:17 20° SSW 18:12:08 10° SE visible
24 Feb - 12:27:40 10° SSW 12:33:26 19° SSE 12:37:36 10° ESE daylight
24 Feb - 14:39:43 10° SW 14:45:10 31° S 14:48:58 10° ESE daylight
24 Feb - 16:52:30 10° WSW 16:56:10 27° S 16:59:20 10° SE daylight
24 Feb - 19:06:18 10° SSW 19:06:56 10° SSW 19:07:35 10° SSW visible
25 Feb - 11:14:05 10° S 11:19:20 15° SSE 11:23:25 10° SE daylight
25 Feb - 13:24:57 10° SW 13:31:38 29° S 13:36:03 10° ESE daylight
25 Feb - 15:38:07 10° WSW 15:43:00 34° S 15:46:34 10° ESE daylight
25 Feb - 17:51:08 10° WSW 17:53:44 17° SSW 17:56:16 10° SSE daylight
26 Feb - 10:03:03 10° SSE 10:04:53 10° SSE 10:06:34 10° SE daylight
26 Feb - 12:10:05 10° SSW 12:17:46 25° SSE 12:22:52 10° ESE daylight
26 Feb - 14:23:15 10° WSW 14:29:39 37° S 14:33:49 10° ESE daylight
26 Feb - 16:36:43 10° WSW 16:40:40 27° SSW 16:43:52 10° SE daylight
27 Feb - 10:55:34 10° SSW 11:03:32 21° SSE 11:09:10 10° ESE daylight
27 Feb - 13:08:00 10° SW 13:16:01 35° S 13:20:59 10° ESE daylight
27 Feb - 15:21:58 10° WSW 15:27:29 36° S 15:31:18 10° ESE daylight
27 Feb - 17:35:47 10° WSW 17:38:09 15° SSW 17:40:21 10° SSE daylight
28 Feb - 09:42:08 10° S 09:48:57 15° SSE 09:54:18 10° ESE daylight
28 Feb - 11:52:36 10° SW 12:02:02 31° SSE 12:07:56 10° ESE daylight
28 Feb - 14:06:43 10° WSW 14:14:05 42° S 14:18:38 10° ESE daylight
28 Feb - 16:20:51 10° WSW 16:25:07 26° SSW 16:28:25 10° SE daylight
01 Mar - 10:37:26 10° SSW 10:47:39 26° SSE 10:54:25 10° ESE daylight
01 Mar - 12:51:01 10° WSW 13:00:20 42° S 13:05:51 10° ESE daylight
01 Mar - 15:05:43 10° WSW 15:11:55 38° S 15:16:01 10° ESE daylight
01 Mar - 17:20:25 10° WSW 17:22:30 13° SSW 17:24:24 10° S daylight
02 Mar - 09:23:04 10° SSW 09:32:53 21° SSE 09:40:04 10° ESE daylight
02 Mar - 11:35:08 10° SW 11:46:12 38° SSE 11:52:51 10° E daylight
02 Mar - 13:50:05 10° WSW 13:58:27 46° S 14:03:26 10° ESE daylight
02 Mar - 16:04:51 10° WSW 16:09:30 25° SSW 16:12:57 10° SE daylight
03 Mar - 08:10:34 10° S 08:17:50 14° SSE 08:23:53 10° ESE daylight
03 Mar - 10:19:27 10° SW 10:31:39 32° SSE 10:39:25 10° E daylight
03 Mar - 12:33:59 10° WSW 12:44:35 47° S 12:50:40 10° ESE daylight
03 Mar - 14:49:21 10° W 14:56:19 39° SSW 15:00:44 10° SE daylight
03 Mar - 17:05:03 10° WSW 17:06:47 12° SW 17:08:21 10° S daylight
04 Mar - 09:04:29 10° SSW 09:16:42 26° SSE 09:25:18 10° ESE daylight
04 Mar - 11:17:41 10° SW 11:30:17 44° SSE 11:37:38 10° E daylight
04 Mar - 13:33:21 10° WSW 13:42:45 49° S 13:48:11 10° ESE daylight
04 Mar - 15:48:45 10° W 15:53:50 25° SSW 15:57:28 10° SSE daylight
